Find Starlink 31001

NORAD ID: 58527 Int'l Des: 2023-191 Owner: SPXS Country: US Constellation: starlink operational
LEOCIRCULAR

現在のビュー

3D地球を読み込み中...

About Starlink 31001

Starlink 31001 (NORAD 58527) is a starlink constellation satellite (v2 mini) launched Dec 7, 2023 by SPXS of US. It operates in LEO, CIRCULAR orbit with a mass of 730.00 kg.

Starlink 31001について

説明を読み込み中...

次回通過

Passes for default location (London). Set your location on the main map for personalized predictions.

高度履歴

Loading altitude history...

軌道要素

1 58527U 23191V 26166.98662093 .00004596 00000-0 17648-3 0 9990
2 58527 42.9994 268.2920 0001221 275.9390 84.1322 15.27569801140500
Epoch: Jun 15, 2026 • Age: 12 hours

現在のステータス

高度 488.0 km
速度 7.62 km/s
衛星直下点 -22.42°S, 32.91°E
打ち上げ日 Dec 7, 2023
運用期間 2.5 years
タイプ internet

技術仕様

分類 Payload
質量 730.00 kg
乾燥質量 700.00 kg
総質量 730.00 kg
長さ 0.30 m
直径 4.10 m
スパン 29.00 m
形状 Box + pan
製造者 SPXS
バスタイプ Starlink V2M
フェーズステータス In Orbit
所有者/国 SPXS/US

Most Searched